When you browse on this site, cookies collect data to enhance your experience and personalize the content and advertising you see.
Visit our Privacy Policy to learn more. By continuing to use the site, you agree to this use of cookies and data.
  • In Hungary
  • List of Countries
  • For 7 days
  • Water Temperature
  • Weather Map
  • News
  • Weather Widgets
  • user-avatar
    Login

    Hourly Weather Maytobe

    Today, 2 April, Thursday

    Time Temperature Precipitation Wind Pressure Humidity
    00:00 +10°C° 0.3 mm 4 mps 701 mmHg 85%
    01:00 +10°C° 0.3 mm 4 mps 701 mmHg 85%
    02:00 +8°C° 0.3 mm 4 mps 701 mmHg 86%
    03:00 +9°C° 1.3 mm 3 mps 701 mmHg 86%
    04:00 +9°C° 1.3 mm 3 mps 702 mmHg 87%
    05:00 +8°C° 0 mm 3 mps 702 mmHg 88%
    06:00 +9°C° 0.1 mm 3 mps 702 mmHg 84%
    07:00 +10°C° 0.1 mm 3 mps 703 mmHg 80%
    08:00 +10°C° 0.1 mm 4 mps 703 mmHg 76%
    09:00 +11°C° 0 mm 4 mps 703 mmHg 71%
    10:00 +12°C° 0 mm 4 mps 703 mmHg 66%
    11:00 +13°C° 0 mm 3 mps 703 mmHg 61%
    12:00 +14°C° 0 mm 3 mps 703 mmHg 59%
    13:00 +15°C° 0 mm 2 mps 703 mmHg 57%
    14:00 +16°C° 0 mm 2 mps 702 mmHg 55%
    15:00 +16°C° 0 mm 2 mps 702 mmHg 55%
    16:00 +16°C° 0 mm 1 mps 702 mmHg 55%
    17:00 +16°C° 0 mm 1 mps 702 mmHg 55%
    18:00 +14°C° 0.1 mm 1 mps 702 mmHg 59%
    19:00 +13°C° 0.1 mm 2 mps 702 mmHg 64%
    20:00 +12°C° 0.1 mm 2 mps 702 mmHg 68%
    21:00 +10°C° 0 mm 2 mps 702 mmHg 68%
    22:00 +10°C° 0 mm 2 mps 702 mmHg 67%
    23:00 +10°C° 0 mm 2 mps 702 mmHg 66%

    Tomorrow, 3 April, Friday

    Time Temperature Precipitation Wind Pressure Humidity
    00:00 +9°C° 0 mm 2 mps 702 mmHg 64%
    01:00 +9°C° 0 mm 2 mps 701 mmHg 62%
    02:00 +9°C° 0 mm 3 mps 701 mmHg 60%
    03:00 +9°C° 0 mm 3 mps 701 mmHg 58%
    04:00 +9°C° 0 mm 3 mps 701 mmHg 56%
    05:00 +9°C° 0 mm 3 mps 701 mmHg 55%
    06:00 +10°C° 0 mm 2 mps 701 mmHg 52%
    07:00 +12°C° 0 mm 2 mps 701 mmHg 49%
    08:00 +14°C° 0 mm 2 mps 701 mmHg 45%
    09:00 +16°C° 0 mm 2 mps 702 mmHg 40%
    10:00 +17°C° 0 mm 2 mps 702 mmHg 35%
    11:00 +19°C° 0 mm 2 mps 702 mmHg 30%
    12:00 +20°C° 0 mm 2 mps 702 mmHg 28%
    13:00 +20°C° 0 mm 2 mps 702 mmHg 26%
    14:00 +21°C° 0 mm 2 mps 701 mmHg 24%
    15:00 +20°C° 0 mm 2 mps 701 mmHg 29%
    16:00 +20°C° 0 mm 2 mps 701 mmHg 34%
    17:00 +19°C° 0 mm 2 mps 701 mmHg 39%
    18:00 +18°C° 0 mm 2 mps 701 mmHg 41%
    19:00 +16°C° 0 mm 2 mps 701 mmHg 44%
    20:00 +13°C° 0 mm 3 mps 701 mmHg 47%
    21:00 +13°C° 0 mm 3 mps 701 mmHg 47%
    22:00 +13°C° 0 mm 3 mps 701 mmHg 48%
    23:00 +13°C° 0 mm 3 mps 701 mmHg 49%

    Day after tomorrow, 4 April, Saturday

    Time Temperature Precipitation Wind Pressure Humidity
    00:00 +13°C° 0 mm 3 mps 701 mmHg 49%
    01:00 +13°C° 0 mm 3 mps 701 mmHg 49%
    02:00 +13°C° 0 mm 3 mps 700 mmHg 49%
    03:00 +14°C° 0 mm 2 mps 700 mmHg 48%
    04:00 +13°C° 0 mm 2 mps 700 mmHg 47%
    05:00 +13°C° 0 mm 2 mps 700 mmHg 46%
    06:00 +15°C° 0 mm 2 mps 700 mmHg 45%
    07:00 +16°C° 0 mm 2 mps 701 mmHg 45%
    08:00 +18°C° 0 mm 2 mps 701 mmHg 44%
    09:00 +21°C° 0 mm 1 mps 701 mmHg 39%
    10:00 +22°C° 0 mm 1 mps 701 mmHg 34%
    11:00 +24°C° 0 mm 1 mps 702 mmHg 28%
    12:00 +24°C° 0 mm 1 mps 701 mmHg 28%
    13:00 +25°C° 0 mm 2 mps 701 mmHg 28%
    14:00 +25°C° 0 mm 2 mps 701 mmHg 28%
    15:00 +24°C° 0 mm 2 mps 700 mmHg 30%
    16:00 +24°C° 0 mm 2 mps 700 mmHg 33%
    17:00 +24°C° 0 mm 2 mps 700 mmHg 36%
    18:00 +21°C° 0 mm 2 mps 699 mmHg 40%
    19:00 +20°C° 0 mm 1 mps 699 mmHg 45%
    20:00 +18°C° 0 mm 1 mps 699 mmHg 49%
    21:00 +18°C° 0 mm 1 mps 699 mmHg 48%
    22:00 +16°C° 0 mm 1 mps 699 mmHg 47%
    23:00 +16°C° 0 mm 2 mps 699 mmHg 46%

    5 April, Sunday

    Time Temperature Precipitation Wind Pressure Humidity
    00:00 +16°C° 0 mm 1 mps 699 mmHg 44%
    01:00 +16°C° 0 mm 1 mps 698 mmHg 43%
    02:00 +16°C° 0 mm 1 mps 698 mmHg 41%
    03:00 +16°C° 0 mm 1 mps 699 mmHg 42%
    04:00 +15°C° 0 mm 1 mps 699 mmHg 43%
    05:00 +15°C° 0 mm 1 mps 699 mmHg 44%
    06:00 +16°C° 0 mm 1 mps 700 mmHg 46%
    07:00 +16°C° 0 mm 1 mps 700 mmHg 47%
    08:00 +18°C° 0 mm 1 mps 701 mmHg 49%
    09:00 +18°C° 0 mm 1 mps 701 mmHg 55%
    10:00 +16°C° 0 mm 1 mps 701 mmHg 60%
    11:00 +16°C° 0 mm 1 mps 701 mmHg 65%
    12:00 +16°C° 0.1 mm 2 mps 701 mmHg 65%
    13:00 +17°C° 0.1 mm 2 mps 701 mmHg 64%
    14:00 +18°C° 0.1 mm 3 mps 702 mmHg 63%
    15:00 +18°C° 0.2 mm 2 mps 701 mmHg 64%
    16:00 +17°C° 0.2 mm 2 mps 701 mmHg 65%
    17:00 +17°C° 0.2 mm 2 mps 701 mmHg 66%
    18:00 +16°C° 0.2 mm 2 mps 701 mmHg 73%
    19:00 +15°C° 0.2 mm 1 mps 701 mmHg 79%
    20:00 +14°C° 0.2 mm 1 mps 702 mmHg 85%
    21:00 +14°C° 0.1 mm 1 mps 702 mmHg 85%
    22:00 +13°C° 0.1 mm 0 mps 702 mmHg 86%
    23:00 +12°C° 0.1 mm 0 mps 702 mmHg 87%

    6 April, Monday

    Time Temperature Precipitation Wind Pressure Humidity
    00:00 +12°C° 0 mm 0 mps 701 mmHg 88%
    01:00 +11°C° 0 mm 0 mps 701 mmHg 89%
    02:00 +11°C° 0 mm 0 mps 701 mmHg 90%
    03:00 +12°C° 0 mm 1 mps 701 mmHg 89%
    04:00 +12°C° 0 mm 1 mps 701 mmHg 89%
    05:00 +11°C° 0 mm 1 mps 701 mmHg 89%
    06:00 +12°C° 0 mm 1 mps 701 mmHg 84%
    07:00 +14°C° 0 mm 1 mps 702 mmHg 78%
    08:00 +15°C° 0 mm 1 mps 702 mmHg 73%
    09:00 +16°C° 0 mm 1 mps 702 mmHg 67%
    10:00 +18°C° 0 mm 1 mps 702 mmHg 61%
    11:00 +19°C° 0 mm 2 mps 702 mmHg 54%
    12:00 +19°C° 0.2 mm 2 mps 702 mmHg 53%
    13:00 +20°C° 0.2 mm 3 mps 702 mmHg 53%
    14:00 +20°C° 0.2 mm 3 mps 701 mmHg 52%
    15:00 +20°C° 0.2 mm 3 mps 701 mmHg 53%
    16:00 +19°C° 0.2 mm 2 mps 701 mmHg 55%
    17:00 +19°C° 0.2 mm 2 mps 701 mmHg 56%
    18:00 +17°C° 0 mm 2 mps 701 mmHg 60%
    19:00 +16°C° 0 mm 1 mps 701 mmHg 64%
    20:00 +14°C° 0 mm 1 mps 700 mmHg 68%
    21:00 +14°C° 0 mm 1 mps 700 mmHg 68%
    22:00 +14°C° 0 mm 1 mps 700 mmHg 69%
    23:00 +14°C° 0 mm 1 mps 700 mmHg 69%

    7 April, Tuesday

    Time Temperature Precipitation Wind Pressure Humidity
    00:00 +13°C° 0 mm 1 mps 699 mmHg 68%
    01:00 +13°C° 0 mm 1 mps 699 mmHg 67%
    02:00 +13°C° 0 mm 1 mps 698 mmHg 66%
    03:00 +13°C° 0 mm 1 mps 698 mmHg 65%
    04:00 +13°C° 0 mm 1 mps 699 mmHg 64%
    05:00 +13°C° 0 mm 1 mps 699 mmHg 62%
    06:00 +14°C° 0 mm 1 mps 699 mmHg 60%
    07:00 +15°C° 0 mm 1 mps 699 mmHg 58%
    08:00 +18°C° 0 mm 1 mps 700 mmHg 56%
    09:00 +18°C° 0 mm 3 mps 700 mmHg 53%
    10:00 +20°C° 0 mm 4 mps 700 mmHg 51%
    11:00 +21°C° 0 mm 6 mps 699 mmHg 49%
    12:00 +21°C° 0.1 mm 7 mps 699 mmHg 49%
    13:00 +22°C° 0.1 mm 8 mps 699 mmHg 49%
    14:00 +22°C° 0.1 mm 9 mps 699 mmHg 49%
    15:00 +20°C° 0.4 mm 8 mps 699 mmHg 53%
    16:00 +18°C° 0.4 mm 7 mps 698 mmHg 57%
    17:00 +16°C° 0.4 mm 6 mps 698 mmHg 61%
    18:00 +14°C° 0.1 mm 5 mps 699 mmHg 69%
    19:00 +12°C° 0.1 mm 4 mps 699 mmHg 76%
    20:00 +12°C° 0.1 mm 2 mps 700 mmHg 84%
    21:00 +10°C° 1.9 mm 2 mps 700 mmHg 88%
    22:00 +10°C° 1.9 mm 3 mps 700 mmHg 92%
    23:00 +9°C° 1.9 mm 3 mps 701 mmHg 96%
    Show more